Regional Weather Roundup
Issued by NWS Goodland, KS

Home | Current Version | Previous Version | Graphics & Text | Print | Product List | Glossary On
Versions: 1 2 3 4 5 6 7 8 9 10 11 12 13 14 15 16 17 18 19 20 21 22 23 24 25 26 27 28 29 30 31 32 33 34 35 36 37 38 39 40 41 42 43 44 45 46 47 48 49 50
000
ASUS43 KGLD 190608
RWRGLD

GOODLAND FORECAST AREA HOURLY WEATHER ROUNDUP
NATIONAL WEATHER SERVICE GOODLAND KS
1100 PM MST SAT NOV 18 2017

...OFFICIAL OBSERVATIONS...

CITY           SKY/WX    TMP DP  RH WIND       PRES   REMARKS
GOODLAND KS    CLEAR     25  14  63 W8        30.27S
HILL CITY KS   CLEAR     28  21  75 W8        30.27F
IMPERIAL NEB   CLEAR     27  17  66 W9        30.26S
MCCOOK NEB     CLEAR     26  20  77 W8        30.26S
AKRON CO       CLOUDY    26  14  60 SE8       30.23F
BURLINGTON CO  CLEAR     19  12  74 SW6       30.27F
LIMON CO       CLOUDY    18  13  80 CALM      30.25S
$$

...UNOFFICIAL OBSERVATIONS...

CITY           SKY/WX    TMP DP  RH WIND       PRES   REMARKS
COLBY KS       CLEAR     25  21  86 W7        30.29S
LENORA KS        N/A     31  32 100 W5          N/A
NORTON KS      CLEAR     28  19  69 W8        30.25
SHARON SPRINGS   N/A     22  14  70 SW7         N/A
TRENTON NEB      N/A     28  32 100 CALM        N/A
KIT CARSON CO    N/A     21  10  61 CALM        N/A
YUMA CO        FAIR      21  14  73 S7        30.25F
$$



USA.gov is the U.S. government's official web portal to all federal, state and local government web resources and services.